[[{"header":{"parameterUnit":"m.s-1","parameterCategory":1,"la1":30.2991,"la2":30.254,"lo1":-89.0895,"lo2":-89.0444,"dy":0.0017,"dx":0.0017,"nx":28,"ny":28,"refTime":"2025-04-12T03:00:00:Z","depth":0,"parameterNumber":2,"parameterNumberName":"U-component_of_WINDS"},"data":[0,0,0,0,0,0,0,0,0,0,0,0,0,0,0,0,0,0,0,0,0,0,0,0,0,0,0,0,0,0,0,0,0,0,0,0,0,0,0,0,0,0,0,0,0,0,0,0,0,0,0,0,0,0,0,0,0,0,0.5735,0.5735,0,0.5733,0.5733,0.5733,0.5738,0.5738,0.5738,0.5739,0.5734,0.5734,0.5734,0,0,0,0,0,0,0,0,0,0,0,0,0,0.5742,0.5742,0.5735,0.5735,0.5735,0.5733,0.5733,0.5733,0.5738,0.5738,0.5738,0.5739,0.5734,0.5734,0.5734,0,0,0,0,0,0,0,0,0,0,0,0,0,0.5739,0.5741,0.5735,0.5737,0.5737,0.5733,0.5733,0.5733,0.5738,0.5738,0.5738,0.5739,0.5734,0.5734,0.5734,0.5726,0,0,0.5732,0.5732,0,0,0,0,0,0,0,0,0.5739,0.5739,0.5737,0.5737,0.5737,0.5736,0.5734,0.573,0.5738,0.5738,0.5739,0.5739,0.5734,0.5734,0.5733,0.5726,0.5726,0.5732,0.5732,0.5732,0.5732,0,0,0,0,0,0,0,0.5739,0.5739,0.5734,0.5737,0.5737,0.5738,0.5738,0.5733,0.5735,0.5738,0.5738,0.5738,0.5735,0.5733,0.5733,0.5725,0.5732,0.5732,0.5732,0.5731,0.5713,0.5712,0,0,0,0,0,0,0.5739,0.5739,0.5734,0.5734,0.5739,0.5738,0.5738,0.5736,0.5735,0.5735,0.5738,0.5738,0.5734,0.5733,0.5733,0.5724,0.5732,0.5731,0.5731,0.5713,0.5713,0.5712,0,0,0,0,0,0,0.574,0.5739,0.5734,0.5737,0.5736,0.5737,0.5736,0.5736,0.5735,0.5735,0.5735,0.5736,0.5734,0.5733,0.5728,0.5724,0.5731,0.5731,0.5713,0.5713,0.5712,0.5706,0,0,0,0,0,0,0.574,0.5739,0.5736,0.5737,0.5736,0.573,0.5735,0.5736,0.5734,0.5735,0.5733,0.5733,0.5734,0.5729,0.5728,0.5723,0.5731,0.5713,0.5713,0.5713,0.5707,0.5706,0.5705,0,0,0,0,0,0.574,0.5734,0.5736,0.5736,0.5733,0.5729,0.5729,0.5731,0.5734,0.5731,0.5731,0.5733,0.5725,0.5728,0.5727,0.5723,0.5714,0.5713,0.5713,0.5707,0.5706,0.5705,0,0,0,0,0,0,0.5732,0.5734,0.5736,0.573,0.573,0.573,0.5727,0.5729,0.5727,0.5728,0.5729,0.5729,0.5723,0.5722,0.5726,0.5716,0.572,0.5719,0.5716,0.5715,0.5714,0.5714,0.573,0,0,0,0,0,0.573,0.5728,0.5729,0.5724,0.5724,0.5725,0.5724,0.5726,0.5725,0.5724,0.5724,0.5722,0.5719,0.5717,0.5714,0.5707,0.5707,0.5704,0.5703,0.5702,0.5701,0.5697,0.5696,0.571,0.571,0.571,0,0,0.5725,0.5726,0.5724,0.5722,0.5722,0.5719,0.5725,0.5721,0.5719,0.5723,0.5718,0.5718,0.5717,0.5711,0.5708,0.571,0.5697,0.5701,0.5701,0.57,0.5697,0.5695,0.5694,0.571,0.571,0.571,0,0,0.5714,0.5715,0.571,0.571,0.571,0.5712,0.5711,0.5711,0.5712,0.5707,0.571,0.5708,0.5702,0.5701,0.57,0.5691,0.5692,0.569,0.5684,0.568,0.5679,0.5678,0.5675,0.5673,0.5689,0.5689,0.5689,0,0.5707,0.5704,0.5707,0.5704,0.5703,0.5709,0.5704,0.5704,0.5702,0.5702,0.5704,0.5699,0.5698,0.5692,0.569,0.5688,0.5687,0.5689,0.5679,0.5678,0.5677,0.5674,0.5673,0.5689,0.5689,0.5689,0.5689,0,0.5695,0.5693,0.5689,0.5689,0.5688,0.5684,0.5687,0.5686,0.5688,0.5689,0.5685,0.5685,0.5682,0.5681,0.5682,0.5675,0.5676,0.5679,0.5683,0.5676,0.5673,0.5671,0.5688,0.5688,0.5688,0.5688,0,0,0.5677,0.5681,0.568,0.568,0.5681,0.5679,0.5676,0.5675,0.5673,0.5673,0.5669,0.5666,0.5669,0.5668,0.5669,0.5666,0.5659,0.567,0.567,0.5667,0.5651,0.5648,0.5646,0.5661,0.5661,0.566,0.5651,0,0.5666,0.5661,0.5665,0.5659,0.5657,0.5663,0.566,0.566,0.5662,0.566,0.5661,0.5658,0.5663,0.5662,0.566,0.566,0.5656,0.5661,0.5657,0.5657,0.5657,0.5645,0.5642,0.5632,0.565,0.5649,0.5649,0,0.5652,0.5653,0.5647,0.5649,0.5649,0.5646,0.5645,0.5644,0.5644,0.5646,0.5645,0.5648,0.5645,0.565,0.5645,0.5649,0.5648,0.5648,0.5648,0.5647,0.5652,0.5643,0.5629,0.5628,0.5647,0.5647,0.5648,0,0.5639,0.5638,0.5635,0.5635,0.5638,0.5636,0.5637,0.5638,0.5638,0.5637,0.5637,0.5636,0.5635,0.5634,0.5636,0.564,0.5631,0.5636,0.5632,0.5632,0.5628,0.5628,0.5614,0.5629,0.5629,0.5629,0.5629,0,0.5626,0.5622,0.5629,0.5626,0.5622,0.5628,0.5623,0.5625,0.5626,0.5624,0.5629,0.5627,0.5631,0.5629,0.5631,0.5627,0.5626,0.5627,0.5627,0.5626,0.5626,0.5624,0.5625,0.5629,0.5629,0.5629,0.5629,0,0.561,0.5615,0.5611,0.5615,0.5616,0.5613,0.5616,0.5614,0.5617,0.5614,0.5613,0.5617,0.5615,0.5619,0.5617,0.5618,0.5612,0.5614,0.5612,0.5612,0.5607,0.5607,0.5591,0.5589,0.5606,0.5606,0.5606,0,0.56,0.5598,0.5602,0.5602,0.5603,0.5602,0.5601,0.5607,0.5606,0.5608,0.5605,0.5605,0.5604,0.5601,0.5603,0.5602,0.5603,0.5598,0.5603,0.5602,0.5602,0.5602,0.5602,0.5596,0.5596,0.5596,0.5595,0,0.5583,0.5586,0.5586,0.5587,0.5587,0.5587,0.5589,0.5588,0.5594,0.5593,0.5592,0.5591,0.5591,0.559,0.5589,0.559,0.5593,0.5594,0.5593,0.5591,0.559,0.559,0.5608,0.5594,0.5594,0.5594,0.5594,0.5594,0.5569,0.5567,0.557,0.557,0.5572,0.5574,0.5572,0.5575,0.5575,0.5575,0.5579,0.5577,0.5579,0.5579,0.558,0.5578,0.5581,0.5579,0.5578,0.5578,0.5577,0.5591,0.5578,0.5578,0.5578,0.5579,0.5579,0,0.5551,0.5554,0.5554,0.5556,0.5557,0.5562,0.5564,0.5563,0.5562,0.5564,0.5564,0.5563,0.5563,0.5566,0.5565,0.5564,0.5565,0.5563,0.5563,0.5563,0.5575,0.5576,0.5562,0.5562,0.5562,0.5562,0.5562,0.5562,0.5542,0.5539,0.5543,0.5541,0.5544,0.5543,0.5544,0.5545,0.5547,0.5546,0.5546,0.5549,0.5551,0.5551,0.5551,0.5552,0.5551,0.5549,0.555,0.556,0.5562,0.5563,0.5564,0.5549,0.5549,0.5538,0.5538,0.5538]},{"header":{"parameterUnit":"m.s-1","parameterCategory":1,"la1":30.2991,"la2":30.254,"lo1":-89.0895,"lo2":-89.0444,"dy":0.0017,"dx":0.0017,"nx":28,"ny":28,"refTime":"2025-04-12T03:00:00:Z","depth":0,"parameterNumber":3,"parameterNumberName":"V-component_of_WINDS"},"data":[0,0,0,0,0,0,0,0,0,0,0,0,0,0,0,0,0,0,0,0,0,0,0,0,0,0,0,0,0,0,0,0,0,0,0,0,0,0,0,0,0,0,0,0,0,0,0,0,0,0,0,0,0,0,0,0,0,0,-5.5721,-5.5723,0,-5.5866,-5.5868,-5.587,-5.5796,-5.5792,-5.5788,-5.5785,-5.5931,-5.5938,-5.5945,0,0,0,0,0,0,0,0,0,0,0,0,0,-5.5379,-5.5386,-5.5721,-5.5723,-5.5725,-5.5866,-5.5868,-5.587,-5.5796,-5.5792,-5.5787,-5.5783,-5.5928,-5.5937,-5.5946,0,0,0,0,0,0,0,0,0,0,0,0,0,-5.5526,-5.5388,-5.5721,-5.5705,-5.5705,-5.5866,-5.5868,-5.587,-5.5797,-5.5792,-5.5786,-5.5781,-5.5926,-5.5936,-5.5947,-5.6131,0,0,-5.5982,-5.5986,0,0,0,0,0,0,0,0,-5.5518,-5.5539,-5.5706,-5.5707,-5.5707,-5.5807,-5.5801,-5.5958,-5.5799,-5.5762,-5.5784,-5.5778,-5.5894,-5.5908,-5.5947,-5.6138,-5.6144,-5.5982,-5.5989,-5.5994,-5.5997,0,0,0,0,0,0,0,-5.5508,-5.5532,-5.5778,-5.5708,-5.5709,-5.5691,-5.5705,-5.583,-5.5859,-5.5765,-5.576,-5.5778,-5.5893,-5.5937,-5.595,-5.6146,-5.5982,-5.5992,-5.5999,-5.6003,-5.6495,-5.6501,0,0,0,0,0,0,-5.5499,-5.5524,-5.5774,-5.5783,-5.5597,-5.5701,-5.5718,-5.5781,-5.5857,-5.5863,-5.5783,-5.5774,-5.592,-5.5937,-5.5955,-5.6176,-5.5994,-5.6004,-5.6011,-5.6489,-5.6496,-5.6503,0,0,0,0,0,0,-5.5492,-5.5522,-5.5768,-5.5652,-5.5682,-5.5713,-5.5785,-5.5787,-5.583,-5.5871,-5.5875,-5.5822,-5.5917,-5.5939,-5.6088,-5.618,-5.6009,-5.602,-5.6481,-5.6491,-5.65,-5.6619,0,0,0,0,0,0,-5.5482,-5.552,-5.559,-5.5655,-5.5689,-5.59,-5.579,-5.5794,-5.585,-5.584,-5.5909,-5.5915,-5.5914,-5.6072,-5.6099,-5.6192,-5.6028,-5.6473,-5.6486,-5.6497,-5.6607,-5.6631,-5.6652,0,0,0,0,0,-5.547,-5.5617,-5.5594,-5.5625,-5.5778,-5.5905,-5.5925,-5.5922,-5.5857,-5.5928,-5.5954,-5.5912,-5.6165,-5.6088,-5.6118,-5.6216,-5.6467,-5.6482,-5.6496,-5.6597,-5.6626,-5.6651,0,0,0,0,0,0,-5.5562,-5.5625,-5.56,-5.5773,-5.5834,-5.5892,-5.5982,-5.5953,-5.6033,-5.6021,-5.6012,-5.6029,-5.6184,-5.6214,-5.6126,-5.6397,-5.6306,-5.6327,-5.6372,-5.6401,-5.6423,-5.6413,-5.6038,0,0,0,0,0,-5.5602,-5.5701,-5.5751,-5.5898,-5.593,-5.5951,-5.6006,-5.5999,-5.6062,-5.6087,-5.6124,-5.6187,-5.628,-5.6342,-5.643,-5.661,-5.6624,-5.6692,-5.6715,-5.6733,-5.6752,-5.6851,-5.6882,-5.655,-5.655,-5.655,0,0,-5.5687,-5.5733,-5.5796,-5.5917,-5.5964,-5.6067,-5.5973,-5.6085,-5.6161,-5.6104,-5.6247,-5.6277,-5.6346,-5.6511,-5.6586,-5.6542,-5.6846,-5.6751,-5.6766,-5.6775,-5.6869,-5.69,-5.6928,-5.656,-5.6558,-5.6557,0,0,-5.5893,-5.5938,-5.6066,-5.6115,-5.6187,-5.62,-5.6231,-5.6294,-5.6312,-5.6456,-5.6415,-5.6505,-5.6666,-5.6717,-5.6764,-5.699,-5.6955,-5.7019,-5.7138,-5.7234,-5.726,-5.7283,-5.7365,-5.7395,-5.7037,-5.7037,-5.7038,0,-5.5989,-5.6142,-5.6135,-5.6251,-5.6306,-5.626,-5.6389,-5.6437,-5.6534,-5.6573,-5.6521,-5.6723,-5.6766,-5.6944,-5.6999,-5.7038,-5.7074,-5.7012,-5.7257,-5.728,-5.7302,-5.738,-5.7411,-5.7045,-5.7044,-5.7043,-5.7042,0,-5.6256,-5.6363,-5.6458,-5.6555,-5.662,-5.6742,-5.6754,-5.682,-5.6807,-5.6825,-5.6972,-5.7022,-5.712,-5.7161,-5.7149,-5.7338,-5.7308,-5.7257,-5.7166,-5.7341,-5.7414,-5.7444,-5.7056,-5.7053,-5.7051,-5.7049,0,0,-5.6526,-5.6617,-5.6652,-5.6696,-5.6772,-5.6855,-5.6974,-5.7071,-5.7129,-5.7197,-5.7298,-5.7436,-5.739,-5.7443,-5.7436,-5.752,-5.7698,-5.7459,-5.746,-5.7503,-5.7911,-5.795,-5.7985,-5.7674,-5.768,-5.7684,-5.7905,0,-5.6738,-5.695,-5.6948,-5.7143,-5.7242,-5.7199,-5.7304,-5.7362,-5.7382,-5.7469,-5.749,-5.7588,-5.7519,-5.7551,-5.7633,-5.7659,-5.778,-5.7643,-5.7768,-5.7773,-5.7754,-5.8023,-5.8065,-5.8271,-5.7934,-5.7939,-5.7942,0,-5.7015,-5.7094,-5.73,-5.7363,-5.7405,-5.7499,-5.7588,-5.7671,-5.7736,-5.7744,-5.7805,-5.7784,-5.7906,-5.781,-5.7978,-5.7885,-5.7935,-5.7956,-5.7964,-5.7977,-5.7869,-5.8045,-5.8337,-5.8369,-5.7987,-5.7983,-5.798,0,-5.7193,-5.7351,-5.7495,-5.7533,-5.7609,-5.7677,-5.7712,-5.7771,-5.783,-5.7907,-5.7945,-5.8035,-5.8085,-5.8154,-5.8159,-5.8088,-5.8329,-5.8232,-5.834,-5.834,-5.8394,-5.8391,-5.87,-5.8424,-5.8423,-5.8423,-5.8422,0,-5.7432,-5.7561,-5.7576,-5.7665,-5.7807,-5.7802,-5.7943,-5.7971,-5.8025,-5.8118,-5.8085,-5.8173,-5.8173,-5.8262,-5.8266,-5.8405,-5.8427,-5.8438,-5.8438,-5.8442,-5.8441,-5.8477,-5.8463,-5.8431,-5.8429,-5.8427,-5.8426,0,-5.7656,-5.7671,-5.7826,-5.7886,-5.7904,-5.8006,-5.8057,-5.8141,-5.8158,-5.8277,-5.8304,-5.8331,-5.8435,-5.8445,-5.8566,-5.8568,-5.8737,-5.872,-5.8716,-5.8714,-5.8821,-5.8812,-5.9166,-5.9213,-5.8904,-5.8907,-5.891,0,-5.7809,-5.7906,-5.7977,-5.8038,-5.8077,-5.8175,-5.8235,-5.8234,-5.8297,-5.8379,-5.8454,-5.8555,-5.8635,-5.8803,-5.8833,-5.8925,-5.8911,-5.9029,-5.8925,-5.8927,-5.8915,-5.891,-5.8921,-5.905,-5.9053,-5.9056,-5.9058,0,-5.8079,-5.8081,-5.8169,-5.8261,-5.8334,-5.8406,-5.8473,-5.8524,-5.8531,-5.8605,-5.8711,-5.8774,-5.8897,-5.8998,-5.9089,-5.9123,-5.9093,-5.909,-5.9121,-5.9127,-5.9121,-5.9128,-5.8773,-5.9083,-5.908,-5.9079,-5.9077,-5.9076,-5.8273,-5.8358,-5.8422,-5.8521,-5.8572,-5.8635,-5.8718,-5.8746,-5.8835,-5.8936,-5.893,-5.9048,-5.911,-5.9229,-5.927,-5.9362,-5.9323,-5.9366,-5.9377,-5.9388,-5.94,-5.9105,-5.9378,-5.9377,-5.9377,-5.9376,-5.9376,0,-5.8542,-5.8581,-5.8673,-5.8768,-5.8847,-5.8811,-5.8884,-5.8952,-5.9056,-5.9117,-5.9198,-5.9321,-5.9418,-5.9456,-5.9551,-5.9617,-5.9606,-5.9643,-5.9639,-5.9647,-5.9429,-5.9395,-5.965,-5.965,-5.965,-5.965,-5.965,-5.965,-5.8692,-5.8835,-5.8846,-5.9014,-5.9051,-5.9167,-5.9212,-5.9271,-5.932,-5.9459,-5.954,-5.9564,-5.9616,-5.9715,-5.9803,-5.9811,-5.9848,-5.9892,-5.9894,-5.969,-5.9663,-5.9636,-5.9604,-5.9899,-5.99,-6.0105,-6.0107,-6.0108]}]]